Weather History for Suffolk, VA

Change the Weather History Date:

Tuesday, November 1, 2011

  Actual Average Record
Temperature  
Mean Temperature 55 °F -  
Max Temperature 62 °F 68 °F 85 °F (1950)
Min Temperature 48 °F 47 °F 25 °F (1954)
Degree Days  
Heating Degree Days 10    
Growing Degree Days 5 (Base 50)    
Moisture  
Dew Point 48 °F    
Average Humidity 83    
Maximum Humidity 100    
Minimum Humidity 52    
Precipitation  
Precipitation 0.33 in - - ()
Sea Level Pressure  
Sea Level Pressure 30.24 in    
Wind  
Wind Speed 7 mph (North)    
Max Wind Speed 13 mph    
Max Gust Speed 18 mph    
Visibility 10 miles    
Events Rain    
Averages and records for this station are not official NWS values.
T = Trace of Precipitation, MM = Missing Value Source: NWS Daily Summary

Daily Weather History Graph

Daily Weather History Graph

Search for Another Location

Airport:

Trip Planner

Search our weather history database for the weather conditions in past years. The results will help you decide how hot, cold, wet, or windy it might be!

Date:

Astronomy

Nov. 01, 2011 Rise Set
Actual Time 7:29 AM EDT 6:09 PM EDT
Civil Twilight 7:02 AM EDT 6:36 PM EDT
Nautical Twilight 6:32 AM EDT 7:07 PM EDT
Astronomical Twilight 6:02 AM EDT 7:37 PM EDT
Moon 1:13 PM EDT (11/1) 11:50 PM EDT (11/1)
Length of Visible Light 11h 33m
Length of Day
10h 40m
Waxing Crescent, 39% of the Moon is Illuminated
Nov 1
Waxing Crescent
Nov 2
First Quarter
Nov 10
Full
Nov 18
Last Quarter
Nov 25
New

Hourly Weather History & Observations

Time (EDT) Temp. Dew Point Humidity Pressure Visibility Wind Dir Wind Speed Gust Speed Precip Events Conditions
12:15 AM 51.8 °F 50.0 °F 94% 30.22 in 10.0 mi NNW 6.9 mph - 0.07 in Rain Heavy Rain
12:35 AM 51.8 °F 50.0 °F 94% 30.21 in 10.0 mi NNW 8.1 mph - 0.15 in Rain Heavy Rain
12:55 AM 51.8 °F 50.0 °F 94% 30.21 in 10.0 mi NNW 8.1 mph - 0.20 in Rain Rain
1:15 AM 51.8 °F 50.0 °F 94% 30.21 in 10.0 mi North 6.9 mph - 0.03 in Rain Rain
1:35 AM 51.8 °F 50.0 °F 94% 30.20 in 10.0 mi NNE 6.9 mph - 0.09 in Rain Rain
1:55 AM 50.0 °F 48.2 °F 94% 30.18 in 10.0 mi NNE 9.2 mph - 0.12 in Rain Light Rain
2:15 AM 50.0 °F 48.2 °F 94% 30.18 in 10.0 mi North 6.9 mph - 0.01 in Rain Light Rain
2:35 AM 50.0 °F 48.2 °F 94% 30.17 in 10.0 mi NNE 6.9 mph - 0.01 in   Scattered Clouds
2:55 AM 50.0 °F 48.2 °F 94% 30.16 in 10.0 mi North 5.8 mph - 0.01 in   Overcast
3:15 AM 50.0 °F 48.2 °F 94% 30.17 in 10.0 mi NNE 4.6 mph - N/A   Overcast
3:35 AM 50.0 °F 48.2 °F 94% 30.17 in 10.0 mi NNE 5.8 mph - N/A   Overcast
4:15 AM 51.8 °F 48.2 °F 88% 30.17 in 10.0 mi North 4.6 mph - N/A   Overcast
4:35 AM 51.8 °F 48.2 °F 88% 30.17 in 10.0 mi North 5.8 mph - N/A   Overcast
4:55 AM 51.8 °F 48.2 °F 88% 30.17 in 10.0 mi North 3.5 mph - N/A   Overcast
5:15 AM 51.8 °F 48.2 °F 88% 30.18 in 10.0 mi NNW 4.6 mph - N/A   Overcast
5:35 AM 51.8 °F 48.2 °F 88% 30.19 in 10.0 mi NNW 5.8 mph - N/A   Overcast
5:55 AM 51.8 °F 48.2 °F 88% 30.19 in 10.0 mi North 4.6 mph - N/A   Overcast
6:15 AM 50.0 °F 48.2 °F 94% 30.20 in 10.0 mi NNW 3.5 mph - N/A   Scattered Clouds
6:35 AM 48.2 °F 48.2 °F 100% 30.20 in 10.0 mi NW 3.5 mph - N/A   Clear
6:55 AM 48.2 °F 48.2 °F 100% 30.20 in 10.0 mi NW 4.6 mph - N/A   Clear
7:15 AM 48.2 °F 46.4 °F 93% 30.21 in 10.0 mi WNW 4.6 mph - N/A   Clear
7:35 AM 48.2 °F 46.4 °F 93% 30.21 in 10.0 mi NW 5.8 mph - N/A   Scattered Clouds
8:15 AM 48.2 °F 48.2 °F 100% 30.23 in 10.0 mi NNW 9.2 mph - N/A   Mostly Cloudy
8:35 AM 50.0 °F 48.2 °F 94% 30.23 in 10.0 mi North 8.1 mph - N/A   Overcast
9:15 AM 51.8 °F 48.2 °F 88% 30.24 in 10.0 mi NNW 8.1 mph - N/A   Overcast
9:35 AM 51.8 °F 50.0 °F 94% 30.25 in 10.0 mi NNW 8.1 mph - N/A   Overcast
9:55 AM 53.6 °F 50.0 °F 88% 30.25 in 10.0 mi NNW 8.1 mph - N/A   Mostly Cloudy
10:35 AM 55.4 °F 51.8 °F 88% 30.26 in 10.0 mi North 10.4 mph - N/A   Scattered Clouds
10:55 AM 57.2 °F 51.8 °F 82% 30.27 in 10.0 mi NNW 10.4 mph - N/A   Scattered Clouds
11:15 AM 55.4 °F 51.8 °F 88% 30.27 in 10.0 mi North 11.5 mph - N/A   Scattered Clouds
11:35 AM 57.2 °F 51.8 °F 82% 30.27 in 10.0 mi North 9.2 mph - N/A   Mostly Cloudy
11:55 AM 57.2 °F 50.0 °F 77% 30.27 in 10.0 mi North 10.4 mph 17.3 mph N/A   Overcast
12:15 PM 57.2 °F 51.8 °F 82% 30.27 in 10.0 mi NNE 10.4 mph - N/A   Mostly Cloudy
12:35 PM 57.2 °F 51.8 °F 82% 30.27 in 10.0 mi North 9.2 mph - N/A   Mostly Cloudy
12:55 PM 57.2 °F 50.0 °F 77% 30.26 in 10.0 mi North 5.8 mph 16.1 mph N/A   Mostly Cloudy
1:15 PM 59.0 °F 51.8 °F 77% 30.26 in 10.0 mi North 6.9 mph - N/A   Scattered Clouds
1:35 PM 59.0 °F 50.0 °F 72% 30.26 in 10.0 mi North 10.4 mph - N/A   Mostly Cloudy
1:55 PM 60.8 °F 48.2 °F 63% 30.26 in 10.0 mi NNE 12.7 mph 18.4 mph N/A   Mostly Cloudy
2:15 PM 59.0 °F 50.0 °F 72% 30.26 in 10.0 mi North 8.1 mph - N/A   Mostly Cloudy
2:35 PM 60.8 °F 48.2 °F 63% 30.26 in 10.0 mi North 10.4 mph - N/A   Scattered Clouds
2:55 PM 60.8 °F 46.4 °F 59% 30.26 in 10.0 mi North 6.9 mph - N/A   Scattered Clouds
3:15 PM 62.6 °F 44.6 °F 52% 30.26 in 10.0 mi North 11.5 mph 16.1 mph N/A   Clear
3:35 PM 60.8 °F 44.6 °F 55% 30.26 in 10.0 mi North 6.9 mph - N/A   Scattered Clouds
3:55 PM 62.6 °F 46.4 °F 55% 30.26 in 10.0 mi NE 10.4 mph - N/A   Mostly Cloudy
4:15 PM 60.8 °F 44.6 °F 55% 30.27 in 10.0 mi North 4.6 mph - N/A   Scattered Clouds
4:35 PM 60.8 °F 46.4 °F 59% 30.28 in 10.0 mi North 3.5 mph - N/A   Clear
5:15 PM 60.8 °F 46.4 °F 59% 30.29 in 10.0 mi NNE 4.6 mph - N/A   Mostly Cloudy
5:35 PM 59.0 °F 46.4 °F 63% 30.29 in 10.0 mi North 3.5 mph - N/A   Mostly Cloudy
5:55 PM 57.2 °F 46.4 °F 67% 30.30 in 10.0 mi NNE 3.5 mph - N/A   Scattered Clouds
6:15 PM 55.4 °F 46.4 °F 72% 30.30 in 10.0 mi Calm Calm - N/A   Clear
6:35 PM 51.8 °F 46.4 °F 82% 30.31 in 10.0 mi Calm Calm - N/A   Clear
6:55 PM 51.8 °F 46.4 °F 82% 30.32 in 10.0 mi Calm Calm - N/A   Clear
7:15 PM 50.0 °F 46.4 °F 87% 30.32 in 10.0 mi Calm Calm - N/A   Clear
7:35 PM 48.2 °F 46.4 °F 93% 30.33 in 10.0 mi Calm Calm - N/A   Clear
7:55 PM 48.2 °F 46.4 °F 93% 30.33 in 10.0 mi Calm Calm - N/A   Clear
8:15 PM 46.4 °F 44.6 °F 93% 30.34 in 10.0 mi Calm Calm - N/A   Clear
8:35 PM 44.6 °F 44.6 °F 100% 30.34 in 10.0 mi Calm Calm - N/A   Clear
8:55 PM 44.6 °F 44.6 °F 100% 30.34 in 10.0 mi Calm Calm - N/A   Clear
9:15 PM 44.6 °F 44.6 °F 100% 30.34 in 10.0 mi Calm Calm - N/A   Clear
9:35 PM 44.6 °F 42.8 °F 93% 30.35 in 10.0 mi Calm Calm - N/A   Clear
9:55 PM 44.6 °F 42.8 °F 93% 30.35 in 10.0 mi Calm Calm - N/A   Clear
10:15 PM 44.6 °F 42.8 °F 93% 30.35 in 10.0 mi Calm Calm - N/A   Clear
10:35 PM 42.8 °F 42.8 °F 100% 30.35 in 10.0 mi Calm Calm - N/A   Clear
10:55 PM 42.8 °F 42.8 °F 100% 30.35 in 10.0 mi Calm Calm - N/A   Clear
11:35 PM 42.8 °F 41.0 °F 93% 30.35 in 10.0 mi Calm Calm - N/A   Clear
11:55 PM 42.8 °F 41.0 °F 93% 30.35 in 10.0 mi Calm Calm - N/A   Clear